Home   Weather   Sandnessjøen   Past weeks

Flag for Norway Past Weather in Sandnessjøen, Norway — Yesterday and Last 2 Weeks

Now
41 °F

Scattered showers. Scattered clouds.


Feels Like: 36 °F
Forecast: 39 / 43 °F
Wind: 8 mph from North

Location: Sandnessjoen / Stokka

Current Time: May 1, 2017 at 12:26:50 am

Latest Report: Apr 30, 2017 at 8:50 pm


Visibility: N/A

Pressure: 30.04 "Hg

Humidity: 66%

Dew Point: 30 °F

Location of SandnessjøenLocation

Past Weather in Sandnessjøen — Graph

°F

Sandnessjøen Temperature Yesterday

Maximum temperature yesterday: 45 °F (at 12:50 pm)
Minimum temperature yesterday: 41 °F (at 9:50 am)
Average temperature yesterday: 43 °F

High & Low Weather Summary for the Past Weeks

 TemperatureHumidityPressure
High46 °F (Apr 28, 11:20 am)100% (Apr 24, 12:50 am)30.48 "Hg (Apr 24, 12:50 am)
Low28 °F (Apr 27, 5:20 am)29% (Apr 28, 5:20 pm)29.18 "Hg (Apr 21, 10:20 am)
Average39 °F61%29.89 "Hg
* Reported Apr 16 10:20 am — Apr 30 8:50 pm, Sandnessjøen, Weather by CustomWeather, © 2017

Note: Actual official high and low records may vary slightly from our data, if they occured in-between our weather recording intervals... More about our weather records

Advertising

Sandnessjøen Weather History for the Previous 24 Hours

Scroll right to see more
 ConditionsComfort  
Time TempWeatherWind HumidityBarometerVisibility
8:50 pm
Sun, Apr 30
41 °FScattered showers. Scattered clouds.8 mph66%30.04 "HgN/A
8:20 pm41 °FPassing clouds.6 mph53%30.04 "HgN/A
7:50 pm41 °FPassing clouds.7 mph61%30.04 "HgN/A
7:20 pm43 °FPassing clouds.9 mph57%30.04 "HgN/A
6:50 pm43 °FPassing clouds.6 mph53%30.04 "HgN/A
6:20 pm43 °FPassing clouds.12 mph53%30.04 "HgN/A
5:20 pm43 °FSunny.6 mph49%30.04 "Hg10 mi
4:50 pm45 °FPassing clouds.10 mph46%30.04 "HgN/A
4:20 pm45 °FPassing clouds.5 mph42%30.04 "HgN/A
3:50 pm45 °FPassing clouds.7 mph37%30.04 "HgN/A
3:20 pm45 °FPassing clouds.8 mph42%30.07 "HgN/A
2:20 pm43 °FPassing clouds.9 mph49%30.07 "HgN/A
1:50 pm43 °FSunny.12 mph46%30.07 "Hg10 mi
1:20 pm43 °FPassing clouds.10 mph46%30.07 "HgN/A
12:50 pm45 °FPassing clouds.7 mph42%30.09 "HgN/A
12:20 pm43 °FSunny.10 mph46%30.09 "Hg10 mi
11:50 am43 °FPassing clouds.8 mph46%30.09 "HgN/A
11:20 am43 °FSunny.12 mph46%30.12 "Hg10 mi
10:50 am43 °FPassing clouds.9 mph39%30.12 "HgN/A
10:20 am43 °FSunny.10 mph39%30.12 "Hg10 mi
9:50 am41 °FSunny.10 mph42%30.12 "Hg10 mi
Weather by CustomWeather, © 2017

See weather overviewHow to use our weather pages